Weather History for PAFA - September, 2013

Change the Weather History Date:

Tuesday, September 10, 2013

  Actual Average Record
Temperature  
Mean Temperature 58 °F 48 °F  
Max Temperature 71 °F 58 °F 75 °F (1965)
Min Temperature 45 °F 38 °F 18 °F (1992)
Degree Days  
Heating Degree Days 7 17  
Month to date heating degree days 133 154  
Since 1 July heating degree days 392 543  
Cooling Degree Days 0 0  
Month to date cooling degree days 0 0  
Year to date cooling degree days 226 61  
Growing Degree Days 8 (Base 50)    
Moisture  
Dew Point 42 °F    
Average Humidity 60    
Maximum Humidity 83    
Minimum Humidity 20    
Precipitation  
Precipitation T in 0.04 in 0.40 in (1921)
Month to date precipitation 0.75 0.45  
Year to date precipitation 6.55 8.02  
Snow  
Snow 0.00 in 0.10 in T in (1987)
Month to date snowfall 0.0 0.3  
Since 1 July snowfall 0.0 0.3  
Since 1 September snowfall 0.0 0.3  
Snow Depth 0.00 in    
Sea Level Pressure  
Sea Level Pressure 29.68 in    
Wind  
Wind Speed 4 mph (NE)    
Max Wind Speed 8 mph    
Max Gust Speed -    
Visibility 10 miles    
Events Rain    
T = Trace of Precipitation, MM = Missing Value Source: NWS Daily Summary

Daily Weather History Graph

Daily Weather History Graph

Search for Another Location

Airport or City:

Trip Planner

Search our weather history database for the weather conditions in past years. The results will help you decide how hot, cold, wet, or windy it might be!

Date:

Astronomy

Sep. 10, 2013 Rise Set
Actual Time 6:59 AM AKDT 8:34 PM AKDT
Civil Twilight 6:08 AM AKDT 9:25 PM AKDT
Nautical Twilight 5:01 AM AKDT 10:32 PM AKDT
Astronomical Twilight 3:28 AM AKDT 12:01 AM AKDT
Moon 2:58 PM AKDT (9/10) 9:20 PM AKDT (9/10)
Length of Visible Light 15h 17m
Length of Day
13h 34m
Waxing Crescent, 30% of the Moon is Illuminated
Sep 10
Waxing Crescent
Sep 12
First Quarter
Sep 19
Full
Sep 26
Last Quarter
Oct 4
New

Hourly Weather History & Observations

Time (AKDT) Temp. Dew Point Humidity Pressure Visibility Wind Dir Wind Speed Gust Speed Precip Events Conditions
12:53 AM 50.0 °F 42.1 °F 74% 29.67 in 10.0 mi North 4.6 mph - N/A   Scattered Clouds
1:53 AM 51.1 °F 41.0 °F 68% 29.68 in 10.0 mi NNE 3.5 mph - N/A   Partly Cloudy
2:53 AM 48.0 °F 43.0 °F 83% 29.68 in 10.0 mi NE 6.9 mph - N/A   Partly Cloudy
3:53 AM 46.9 °F 41.0 °F 80% 29.66 in 10.0 mi NE 8.1 mph - N/A   Scattered Clouds
4:53 AM 46.9 °F 39.9 °F 77% 29.65 in 10.0 mi Calm Calm - N/A   Scattered Clouds
5:53 AM 48.0 °F 41.0 °F 77% 29.68 in 10.0 mi Calm Calm - N/A   Mostly Cloudy
6:53 AM 46.9 °F 42.1 °F 83% 29.68 in 10.0 mi Calm Calm - N/A   Mostly Cloudy
7:53 AM 46.9 °F 42.1 °F 83% 29.68 in 10.0 mi NE 3.5 mph - N/A   Mostly Cloudy
8:53 AM 50.0 °F 43.0 °F 77% 29.69 in 10.0 mi Calm Calm - N/A   Mostly Cloudy
9:53 AM 54.0 °F 43.0 °F 66% 29.70 in 10.0 mi NNE 4.6 mph - N/A   Mostly Cloudy
10:53 AM 60.1 °F 41.0 °F 49% 29.69 in 10.0 mi NNE 4.6 mph - N/A   Mostly Cloudy
11:53 AM 62.1 °F 42.1 °F 48% 29.70 in 10.0 mi NE 5.8 mph - N/A   Mostly Cloudy
12:53 PM 66.0 °F 41.0 °F 40% 29.69 in 10.0 mi Variable 3.5 mph - N/A   Mostly Cloudy
1:53 PM 66.9 °F 42.1 °F 40% 29.68 in 10.0 mi North 5.8 mph - N/A   Mostly Cloudy
2:53 PM 66.0 °F 37.9 °F 36% 29.67 in 10.0 mi East 5.8 mph - N/A   Mostly Cloudy
3:53 PM 71.1 °F 39.0 °F 31% 29.66 in 10.0 mi NNE 8.1 mph - N/A   Mostly Cloudy
4:53 PM 71.1 °F 39.9 °F 32% 29.65 in 10.0 mi ENE 4.6 mph - N/A   Mostly Cloudy
5:53 PM 68.0 °F 42.1 °F 39% 29.65 in 10.0 mi East 4.6 mph - N/A   Mostly Cloudy
6:53 PM 64.9 °F 44.1 °F 47% 29.66 in 10.0 mi ESE 5.8 mph - N/A   Mostly Cloudy
7:53 PM 63.0 °F 44.1 °F 50% 29.68 in 10.0 mi SSE 6.9 mph - N/A   Mostly Cloudy
8:53 PM 59.0 °F 46.0 °F 62% 29.69 in 10.0 mi NNW 3.5 mph - N/A   Mostly Cloudy
9:53 PM 55.9 °F 46.9 °F 72% 29.70 in 10.0 mi ESE 5.8 mph - 0.00 in Rain Light Rain
10:53 PM 55.0 °F 46.0 °F 72% 29.70 in 10.0 mi Calm Calm - 0.00 in   Mostly Cloudy
11:53 PM 54.0 °F 48.0 °F 80% 29.70 in 10.0 mi Calm Calm - N/A   Overcast